Flag for Canada Weather past 2 weeks in Labrador City, Newfoundland and Labrador, Canada

Now
59 °F

Broken clouds.


Feels Like: 57 °F
Forecast: 52 / 69 °F
Wind: 10 mph from Northwest

Location: Wabush Lake

Current Time: Jun 30, 2015 at 11:14:02 PM

Latest Report: Jun 30, 2015 at 10:55 PM


Visibility: 9 mi

Pressure: 29.86 "Hg

Humidity: 82%

Dew point: 54 °F

Location of Labrador CityLocation

Historic Weather in Labrador City — Graph

°F

Labrador City temperature yesterday

Maximum temperature yesterday: 72 °F (at 3:00 PM)
Minimum temperature yesterday: 54 °F (at 3:00 AM)
Average temperature yesterday: 62 °F

Past Weeks' High & Low Weather Summary

 TemperatureHumidityPressure
High75 °F (Jun 23, 4:00 PM)100% (Jun 20, 5:00 AM)30.08 "Hg (Jun 20, 5:00 AM)
Low30 °F (Jun 20, 5:00 AM)25% (Jun 23, 4:00 PM)29.48 "Hg (Jun 18, 9:00 PM)
Average54 °F72%29.84 "Hg
* Reported Jun 15 9:00 PM — Jun 30 9:00 PM, Labrador City, Weather by CustomWeather, © 2015

Note: Actual official high and low records may vary slightly from our data, if they occured in-between our weather recording intervals... More about our weather records

Advertising

Labrador City weather history for previous 24 hours

 ConditionsComfort  
Time TempWeatherWind HumidityBarometerVisibility
9:00 PM
Tue, Jun 30
64 °FOvercast.3 mph78%29.80 "Hg9 mi
8:00 PM66 °FSprinkles. Overcast.13 mph68%29.80 "Hg12 mi
7:00 PM72 °FPartly sunny.6 mph50%29.76 "Hg15 mi
6:00 PM73 °FPartly sunny.14 mph41%29.76 "Hg15 mi
5:00 PM73 °FPartly sunny.8 mph44%29.76 "Hg15 mi
4:00 PM73 °FPartly sunny.8 mph44%29.76 "Hg15 mi
3:00 PM72 °FPartly sunny.3 mph41%29.76 "Hg15 mi
2:00 PM70 °FScattered clouds.2 mph40%29.76 "Hg15 mi
1:00 PM70 °FScattered clouds.6 mph35%29.77 "Hg15 mi
12:00 PM66 °FPassing clouds.2 mph49%29.78 "Hg15 mi
11:00 AM63 °FPassing clouds.5 mph59%29.78 "Hg15 mi
10:00 AM61 °FPassing clouds.3 mph63%29.79 "Hg15 mi
9:00 AM57 °FPassing clouds.No wind72%29.79 "Hg15 mi
8:00 AM55 °FPassing clouds.2 mph72%29.79 "Hg15 mi
7:00 AM54 °FPassing clouds.5 mph82%29.78 "Hg15 mi
6:00 AM48 °FPassing clouds.3 mph94%29.79 "Hg15 mi
5:00 AM48 °FOvercast.5 mph87%29.79 "Hg9 mi
4:00 AM50 °FMostly cloudy.5 mph88%29.79 "Hg9 mi
3:00 AM52 °FOvercast.2 mph82%29.79 "Hg9 mi
2:00 AM52 °FOvercast.6 mph82%29.80 "Hg9 mi
1:00 AM52 °FMostly cloudy.6 mph82%29.80 "Hg9 mi
12:00 AM54 °FMostly cloudy.8 mph77%29.80 "Hg9 mi
11:00 PM
Mon, Jun 29
55 °FOvercast.7 mph77%29.82 "Hg9 mi
Weather by CustomWeather, © 2015

See weather overviewHow to use our weather pages